TimeEDT,TemperatureF,Dew PointF,Humidity,Sea Level PressureIn,VisibilityMPH,Wind Direction,Wind SpeedMPH,Gust SpeedMPH,PrecipitationIn,Events,Conditions,WindDirDegrees,DateUTC
12:15 AM,68.0,68.0,100,30.22,5.0,West,13.8,17.3,0.02,Rain,Light Rain,270,2013-08-10 04:15:00
12:35 AM,66.2,66.2,100,30.22,7.0,West,13.8,-,0.05,Rain,Light Rain,270,2013-08-10 04:35:00
12:55 AM,66.2,66.2,100,30.22,4.0,West,13.8,19.6,N/A,,Overcast,270,2013-08-10 04:55:00
1:15 AM,66.2,66.2,100,30.22,7.0,West,13.8,17.3,N/A,,Mostly Cloudy,270,2013-08-10 05:15:00
1:35 AM,66.2,66.2,100,30.22,7.0,West,12.7,-,N/A,,Mostly Cloudy,270,2013-08-10 05:35:00
1:55 AM,66.2,66.2,100,30.22,5.0,West,12.7,-,N/A,,Overcast,270,2013-08-10 05:55:00
2:15 AM,66.2,66.2,100,30.21,5.0,West,10.4,-,N/A,,Mostly Cloudy,270,2013-08-10 06:15:00
2:35 AM,66.2,66.2,100,30.21,3.0,West,12.7,17.3,N/A,,Mostly Cloudy,270,2013-08-10 06:35:00
2:55 AM,66.2,66.2,100,30.20,0.5,West,10.4,-,N/A,Fog,Fog,270,2013-08-10 06:55:00
3:15 AM,66.2,66.2,100,30.21,0.5,West,11.5,18.4,N/A,Fog,Fog,270,2013-08-10 07:15:00
3:35 AM,66.2,66.2,100,30.21,0.2,West,10.4,17.3,N/A,Fog,Fog,260,2013-08-10 07:35:00
3:55 AM,66.2,66.2,100,30.21,0.2,West,10.4,17.3,N/A,Fog,Fog,260,2013-08-10 07:55:00
4:15 AM,66.2,66.2,100,30.21,0.2,West,10.4,-,N/A,Fog,Fog,260,2013-08-10 08:15:00
4:35 AM,66.2,66.2,100,30.21,0.2,West,11.5,-,N/A,Fog,Fog,270,2013-08-10 08:35:00
4:55 AM,66.2,66.2,100,30.21,0.2,West,10.4,-,N/A,Fog,Fog,270,2013-08-10 08:55:00
5:15 AM,66.2,66.2,100,30.21,0.2,West,11.5,-,0.01,Fog,Fog,260,2013-08-10 09:15:00
5:35 AM,66.2,66.2,100,30.21,0.2,West,10.4,-,0.01,Fog,Fog,270,2013-08-10 09:35:00
5:55 AM,66.2,66.2,100,30.22,0.2,West,10.4,-,N/A,Fog,Fog,270,2013-08-10 09:55:00
6:15 AM,66.2,66.2,100,30.22,0.2,West,11.5,-,N/A,Fog,Fog,270,2013-08-10 10:15:00
6:35 AM,66.2,66.2,100,30.22,0.2,West,12.7,-,N/A,Fog,Fog,270,2013-08-10 10:35:00
6:55 AM,66.2,66.2,100,30.22,0.2,West,10.4,-,N/A,Fog,Fog,280,2013-08-10 10:55:00
7:15 AM,66.2,66.2,100,30.23,0.2,West,10.4,-,N/A,Fog,Fog,270,2013-08-10 11:15:00
7:35 AM,66.2,66.2,100,30.24,0.2,West,11.5,-,N/A,Fog,Fog,270,2013-08-10 11:35:00
7:55 AM,66.2,66.2,100,30.25,0.2,West,9.2,-,N/A,Rain,Light Rain,270,2013-08-10 11:55:00
8:15 AM,66.2,66.2,100,30.25,0.2,West,6.9,-,N/A,Fog,Fog,270,2013-08-10 12:15:00
8:35 AM,66.2,66.2,100,30.25,0.2,WSW,10.4,-,N/A,Fog,Fog,250,2013-08-10 12:35:00
8:55 AM,66.2,66.2,100,30.25,0.2,West,10.4,-,N/A,Rain,Light Rain,260,2013-08-10 12:55:00
9:15 AM,64.4,64.4,100,30.25,0.2,West,10.4,-,N/A,Rain,Light Rain,260,2013-08-10 13:15:00
9:35 AM,66.2,66.2,100,30.25,0.2,WSW,12.7,18.4,N/A,Rain,Light Rain,250,2013-08-10 13:35:00
9:55 AM,64.4,64.4,100,30.26,0.2,West,10.4,17.3,0.02,Rain,Light Rain,280,2013-08-10 13:55:00
10:15 AM,64.4,64.4,100,30.26,0.2,WNW,6.9,-,0.03,Rain,Light Rain,300,2013-08-10 14:15:00
10:35 AM,64.4,64.4,100,30.27,0.5,WNW,6.9,-,0.03,Rain,Light Rain,300,2013-08-10 14:35:00
10:55 AM,64.4,64.4,100,30.27,3.0,NW,5.8,-,0.08,Rain,Heavy Rain,320,2013-08-10 14:55:00
11:15 AM,64.4,64.4,100,30.28,7.0,NW,5.8,-,0.10,Rain,Light Rain,320,2013-08-10 15:15:00
11:35 AM,64.4,64.4,100,30.28,7.0,Calm,Calm,-,0.15,Rain,Rain,0,2013-08-10 15:35:00
11:55 AM,64.4,64.4,100,30.27,10.0,Calm,Calm,-,0.01,Rain,Light Rain,0,2013-08-10 15:55:00
12:15 PM,66.2,66.2,100,30.27,7.0,WSW,4.6,-,0.01,,Scattered Clouds,250,2013-08-10 16:15:00
12:35 PM,68.0,68.0,100,30.26,5.0,WNW,6.9,-,0.01,,Mostly Cloudy,300,2013-08-10 16:35:00
12:55 PM,66.2,66.2,100,30.26,5.0,West,5.8,-,N/A,,Overcast,270,2013-08-10 16:55:00
1:15 PM,66.2,66.2,100,30.26,5.0,West,5.8,-,N/A,,Overcast,270,2013-08-10 17:15:00
1:35 PM,69.8,69.8,100,30.26,5.0,West,8.1,-,N/A,,Overcast,260,2013-08-10 17:35:00
1:55 PM,69.8,66.2,88,30.26,7.0,West,6.9,-,N/A,,Mostly Cloudy,280,2013-08-10 17:55:00
2:15 PM,71.6,68.0,88,30.26,7.0,West,10.4,17.3,N/A,,Mostly Cloudy,260,2013-08-10 18:15:00
2:35 PM,73.4,68.0,83,30.25,10.0,West,10.4,-,N/A,,Mostly Cloudy,280,2013-08-10 18:35:00
2:55 PM,73.4,66.2,78,30.25,10.0,WSW,8.1,-,N/A,,Mostly Cloudy,250,2013-08-10 18:55:00
3:15 PM,73.4,66.2,78,30.25,10.0,West,6.9,-,N/A,,Scattered Clouds,270,2013-08-10 19:15:00
3:35 PM,71.6,66.2,83,30.26,10.0,West,8.1,-,N/A,,Scattered Clouds,260,2013-08-10 19:35:00
3:55 PM,71.6,66.2,83,30.25,10.0,West,8.1,-,N/A,,Mostly Cloudy,260,2013-08-10 19:55:00
4:15 PM,73.4,66.2,78,30.25,10.0,West,9.2,-,N/A,,Mostly Cloudy,280,2013-08-10 20:15:00
4:35 PM,73.4,66.2,78,30.24,10.0,West,11.5,-,N/A,,Mostly Cloudy,270,2013-08-10 20:35:00
4:55 PM,73.4,66.2,78,30.25,10.0,WNW,8.1,-,N/A,,Scattered Clouds,290,2013-08-10 20:55:00
5:15 PM,73.4,66.2,78,30.25,10.0,WNW,9.2,-,N/A,,Scattered Clouds,290,2013-08-10 21:15:00
5:35 PM,73.4,64.4,73,30.24,10.0,WNW,8.1,-,N/A,,Scattered Clouds,290,2013-08-10 21:35:00
5:55 PM,73.4,64.4,73,30.25,10.0,West,10.4,17.3,N/A,,Scattered Clouds,280,2013-08-10 21:55:00
6:15 PM,71.6,62.6,73,30.24,10.0,WNW,8.1,-,N/A,,Clear,290,2013-08-10 22:15:00
6:35 PM,71.6,62.6,73,30.25,10.0,West,6.9,-,N/A,,Clear,280,2013-08-10 22:35:00
6:55 PM,71.6,62.6,73,30.25,10.0,West,5.8,-,N/A,,Clear,280,2013-08-10 22:55:00
7:15 PM,69.8,60.8,73,30.25,10.0,West,5.8,-,N/A,,Clear,270,2013-08-10 23:15:00
7:35 PM,69.8,60.8,73,30.26,10.0,West,6.9,-,N/A,,Clear,270,2013-08-10 23:35:00
7:55 PM,69.8,60.8,73,30.26,10.0,West,5.8,-,N/A,,Clear,270,2013-08-10 23:55:00
8:15 PM,69.8,60.8,73,30.26,10.0,West,5.8,-,N/A,,Clear,270,2013-08-11 00:15:00
8:35 PM,68.0,60.8,78,30.26,10.0,West,5.8,-,N/A,,Clear,280,2013-08-11 00:35:00
8:55 PM,68.0,60.8,78,30.26,10.0,West,5.8,-,N/A,,Clear,280,2013-08-11 00:55:00
9:15 PM,68.0,60.8,78,30.27,10.0,West,4.6,-,N/A,,Clear,270,2013-08-11 01:15:00
9:35 PM,68.0,60.8,78,30.27,10.0,West,3.5,-,N/A,,Scattered Clouds,280,2013-08-11 01:35:00
9:55 PM,66.2,59.0,78,30.29,10.0,West,3.5,-,N/A,,Scattered Clouds,270,2013-08-11 01:55:00
10:15 PM,66.2,60.8,83,30.29,10.0,WNW,3.5,-,N/A,,Clear,290,2013-08-11 02:15:00
10:35 PM,66.2,60.8,83,30.29,10.0,WNW,5.8,-,N/A,,Clear,290,2013-08-11 02:35:00
10:55 PM,64.4,60.8,88,30.29,10.0,WNW,3.5,-,N/A,,Clear,300,2013-08-11 02:55:00
11:15 PM,66.2,60.8,83,30.28,10.0,North,4.6,-,N/A,,Clear,10,2013-08-11 03:15:00
11:35 PM,64.4,60.8,88,30.28,10.0,NE,4.6,-,N/A,,Scattered Clouds,40,2013-08-11 03:35:00
11:55 PM,66.2,60.8,83,30.28,10.0,Calm,Calm,-,N/A,,Scattered Clouds,0,2013-08-11 03:55:00